User: anonymous   Login
Location: Caltech
(34.1382°N, 118.1253°W)
Time: 19:12:06
(UTC-08:00)
Language:

Iridium 91 - Orbit

View from above orbital plane
View from above orbital plane
View from above satellite
View from above satellite

Ground track
Ground track

The orbit data is extracted from the following two-line orbital elements,

1 27372U 02005A   14352.50977490  .00000138  00000-0  42171-4 0  6150
2 27372 086.3986 308.7732 0001986 076.9164 015.5833 14.34213635680955
Epoch (UTC): 18 December 2014 12:14:04
Eccentricity: 0.0001986
inclination: 86.3986°
perigee height: 776 km
apogee height: 779 km
right ascension of ascending node: 308.7732°
argument of perigee: 76.9164°
revolutions per day: 14.34213635
mean anomaly at epoch: 15.5833°
orbit number at epoch: 68095

The dashed part of the orbit path shows where the satellite is in the earth's shadow,  

DLR